Regional Weather Roundup
Issued by NWS

Home | Current Version | Previous Version | Text Only | Print | Product List | Glossary On
Versions: 1 2 3 4 5 6 7 8 9 10 11 12 13 14 15 16 17 18 19 20 21 22 23 24 25 26
807
ASUS45 KTFX 221910
RWRMT
MONTANA REGIONAL WEATHER ROUNDUP
NATIONAL WEATHER SERVICE GREAT FALLS MT
100 PM MDT FRI MAY 22 2015

NOTE: "FAIR" INDICATES FEW OR NO CLOUDS BELOW 12000 FEET WITH NO
SIGNIFICANT WEATHER AND/OR OBSTRUCTIONS TO VISIBILITY.

MTZ001>007-043-222000-
WEST OF THE DIVIDE

CITY           SKY/WX    TMP DP  RH WIND       PRES   REMARKS
KALISPELL      CLEAR     75  34  22 VRB6      29.88F
MISSOULA       SUNNY     70  40  33 CALM      29.89F
BUTTE          CLOUDY    54  39  57 E8        29.96S THUNDER
MULLAN PASS    MOSUNNY   62  31  31 VRB3      29.99S
DEER LODGE       N/A     63  41  45 N5        29.96F
EUREKA           N/A     73  34  23 CALM      29.89F
HAMILTON         N/A     66  45  45 NE9       29.89F
LIBBY            N/A     75  39  27 NW5       29.86F
PLAINS           N/A     76  43  30 S2        29.88F
RONAN            N/A     71  42  35 NW5       29.95F
$$

MTZ008-052>055-222000-
SOUTHWEST MONTANA

CITY           SKY/WX    TMP DP  RH WIND       PRES   REMARKS
BOZEMAN        MOSUNNY   63  43  48 CALM      29.92F
DILLON         MOSUNNY   63  45  51 N7        29.92F
W YELLOWSTONE  CLOUDY    55  32  41 CALM      29.96F
THREE FORKS      N/A     65  65 100 NE1       29.92F
TWIN BRIDGES     N/A     66  38  35 N10       29.92F
$$

MTZ009-010-012-014-046-048-049-054-222000-
EAST SLOPES AND CENTRAL MONTANA

CITY           SKY/WX    TMP DP  RH WIND       PRES   REMARKS
CUT BANK       MOSUNNY   66  36  32 E14       29.98S
GREAT FALLS    SUNNY     66  38  35 CALM      29.94F
MALMSTROM AFB  SUNNY     66  40  39 N5        29.94F
HELENA         MOSUNNY   68  42  38 NE7       29.91F
CONRAD           N/A     67  43  41 N5        29.99F
$$

MTZ011-013-016-021-045-047-050-051-222000-
NORTH CENTRAL MONTANA

CITY           SKY/WX    TMP DP  RH WIND       PRES   REMARKS
HAVRE          MOSUNNY   70  43  37 SE16      29.96F
LEWISTOWN      CLOUDY    61  44  53 E17       29.96F
N BAR RANCH    MOCLDY    59  45  58 E10       30.01S
CHINOOK          N/A     70  41  35 E15G30    29.97F
FORT BENTON      N/A     68  43  40 NE12G17   29.94F
$$

MTZ017>020-022>027-061-062-222000-
NORTHEAST MONTANA

CITY           SKY/WX    TMP DP  RH WIND       PRES   REMARKS
GLASGOW        SUNNY     73  38  27 SE18G31   30.00F
JORDAN           N/A     70  43  37 SE21G33   29.97F
SIDNEY         SUNNY     73  32  21 SE20G26   30.06F
WOLF POINT     SUNNY     75  35  23 SE17G25   30.02F
MALTA            N/A     70  44  38 E12       29.96F
PLENTYWOOD       N/A     73  30  20 S23G29    30.08S
POPLAR           N/A     73  25  16 SE22G30   30.04F
$$

MTZ028>42-056>058-222000-
SOUTHCENTRAL AND SOUTHEAST MONTANA

CITY           SKY/WX    TMP DP  RH WIND       PRES   REMARKS
BAKER          PTSUNNY   69  40  34 SE25G33   30.06F
BILLINGS       PTSUNNY   62  46  55 E7        29.94F
LIVINGSTON     MOSUNNY   64  44  48 E10       29.93F
MILES CITY     CLOUDY    67  43  41 SE18G26   29.99S
BIG TIMBER       N/A     61  45  55 NE3       29.95F
FORSYTH          N/A     66  45  45 SE16G25   29.96S
LAUREL           N/A     62  45  53 N3        29.94F
ROUNDUP          N/A     63  44  49 NE7       29.88F
$$

REGIONAL REPORTS...DAKOTAS

CITY           SKY/WX    TMP DP  RH WIND       PRES   REMARKS
WILLISTON      SUNNY     75  31  19 SE16G28   30.08F
MINOT          SUNNY     75  33  21 S12G21    30.11F
DICKINSON      SUNNY     70  33  25 SE22G36   30.08F
BEACH          FAIR      66  32  28 SE20G31   30.08S
CROSBY         FAIR      75  30  19 SE12G17   30.09F
WATFORD CITY   FAIR      73  32  21 S20G29    30.07F
BISMARCK       SUNNY     74  36  25 S10G22    30.13F
GRAND FORKS    SUNNY     75  37  25 S8        30.15F
FARGO          SUNNY     72  40  31 VRB7      30.18F
BUFFALO SD       N/A     66  40  38 SE20G32   30.00F
RAPID CITY     CLOUDY    59  44  57 S17       30.08F
$$

REGIONAL REPORTS...WYOMING/IDAHO/WASHINGTON

CITY           SKY/WX    TMP DP  RH WIND       PRES   REMARKS
GILLETTE       CLOUDY    56  41  57 SE24G30   30.02S
SHERIDAN       PTSUNNY   63  47  55 SE17G25   29.94F
BUFFALO WY     CLOUDY    57  45  64 SE17      30.00S
CODY           MOSUNNY   61  45  55 CALM      29.94F
YELLOWSTONE LA   N/A     49  33  54 E7        30.04S
IDAHO FALLS    PTSUNNY   62  43  49 N6        29.90F
SALMON         PTSUNNY   64  41  42 CALM      29.87F
BOISE          MOSUNNY   67  49  52 SW3       29.87F
SPOKANE        PTSUNNY   74  51  44 VRB5      29.86F
$$

REGIONAL REPORTS...ALBERTA

CITY           SKY/WX    TMP DP  RH WIND       PRES   REMARKS
EDMONTON       MOSUNNY   75  28  17 S7        29.98F
CALGARY        MOSUNNY   68  25  19 SE7G17    30.01S
LETHBRIDGE     MOSUNNY   70  36  28 E8        29.97S
MEDICINE HAT   MOSUNNY   73  27  17 VRB8      29.97S
$$

REGIONAL REPORTS...SASKATCHEWAN

CITY           SKY/WX    TMP DP  RH WIND       PRES   REMARKS
SWIFT CURRENT  SUNNY     72  28  20 SE24G31   30.04F
REGINA         MOSUNNY   75  30  19 S6        30.07F
SASKATOON      MOSUNNY   77  32  19 S9        30.06F
$$



USA.gov is the U.S. government's official web portal to all federal, state and local government web resources and services.